Weather in Burford

United Kingdom     51°48′28″N   1°38′10″W
temp.,
°C
wind,
m/s
gust,
m/s
humid.,
%
clouds,
%
prec.,
mm/h
press.,
hPa
HPBL,
m
7 may, fri
fri701:00+1wnw411830 0.0 1012203
04:000wnw36890 0.0 101487
07:00+2w27780 0.0 1015182
10:00+8w45625 0.0 10171215
13:00+11w565499 0.1 10172032
16:00+11wsw355777 0.0 10161525
19:00+9sw467394 0.1 1016303
22:00+4ssw2288100 0.0 101621
8 may, sat
sat801:00+3sse3874100 0.0 1013161
04:00+4se51489100 0.6 1009412
07:00+7se71699100 5.4 1004606
10:00+11ssw91798100 7.5 10001004
13:00+12ssw91797100 12.3 1000835
16:00+13ssw91796100 0.9 1000860
19:00+13ssw101888100 0.9 9991039
22:00+13ssw101782100 0.0 999994
9 may, sun
sun901:00+12ssw91682100 0.0 9981004
04:00+12s8168698 0.0 995876
07:00+12s8178736 0.0 994814
10:00+12ssw71289100 0.0 995920
13:00+15ssw9146759 0.1 9951531
16:00+14ssw71871100 0.0 9951605
19:00+11ssw61378100 0.0 995731
22:00+10ssw6147795 0.0 995780
10 may, mon
mon1001:00+9s61490100 0.0 995685
04:00+10ssw81281100 0.1 9961009
07:00+9ssw8148797 0.1 997955
10:00+10ssw91479100 0.1 9991198
13:00+13sw9137235 0.4 10011610
16:00+13ssw811675 0.4 10021786
19:00+10ssw815780 0.8 10021307
22:00+6sse410955 0.0 1005217
11 may, tue
tue1101:00+5sse379569 0.0 1005130
04:00+6sse23923 0.0 100570
07:00+7sse27916 0.0 1006217
10:00+12ssw567088 0.0 10061096
13:00+14s576197 0.1 10071934
16:00+14ssw676319 0.3 10071556
19:00+12ssw47762 0.4 1008608
22:00+6ssw34930 0.0 100951